Вернуться в каталог

COSMOS 1481 DEB

LostHEO
NORAD 48345·DEBRIS·🇷🇺 Russia

Запущен Jul 8, 1983 с Plesetsk Cosmodrome

Loading…

Ближайшие Пролёты (ближайшие 24 часа)

TLE

УстаревшееSource: Space-Track

Эпоха: Sep 15, 2025, 20:23 UTC

1 48345U 83070M   25258.84933451 -.00000020  00000-0  00000-0 0  9994
2 48345  65.5443  89.5271 6839262 331.6575   4.0281  2.00094374 86177

Отслеживайте COSMOS 1481 DEB в реальном времени с AllMySat

Download on the App Store